• în România
  • Lista ţărilor
  • Pe 7 zile
  • Temperatura apei
  • Hartă satelitară
  • Meteo pe hartă
  • Widget-uri
  • user-avatar
    Intrare

    Meteo pe oră la Erd

    Astăzi, 20 Octombrie, Sâmbătă

    Timp Temperatura Precipitaţii Vânt Presiune Umiditate
    00:00 +13°C° 0 mm 1 m/s 756 mmHg 69%
    01:00 +13°C° 0 mm 1 m/s 756 mmHg 69%
    02:00 +13°C° 0 mm 1 m/s 756 mmHg 71%
    03:00 +13°C° 0 mm 1 m/s 756 mmHg 73%
    04:00 +12°C° 0 mm 1 m/s 756 mmHg 75%
    05:00 +12°C° 0 mm 2 m/s 756 mmHg 76%
    06:00 +12°C° 0 mm 2 m/s 757 mmHg 77%
    07:00 +12°C° 0 mm 2 m/s 757 mmHg 78%
    08:00 +14°C° 0 mm 2 m/s 757 mmHg 71%
    09:00 +16°C° 0 mm 2 m/s 757 mmHg 63%
    10:00 +17°C° 0 mm 2 m/s 757 mmHg 56%
    11:00 +18°C° 0 mm 3 m/s 757 mmHg 52%
    12:00 +19°C° 0 mm 3 m/s 757 mmHg 49%
    13:00 +20°C° 0 mm 3 m/s 757 mmHg 45%
    14:00 +20°C° 0 mm 3 m/s 757 mmHg 46%
    15:00 +19°C° 0 mm 3 m/s 756 mmHg 48%
    16:00 +19°C° 0 mm 4 m/s 756 mmHg 49%
    17:00 +18°C° 0 mm 4 m/s 756 mmHg 54%
    18:00 +16°C° 0 mm 3 m/s 756 mmHg 59%
    19:00 +14°C° 0 mm 3 m/s 756 mmHg 64%
    20:00 +14°C° 0 mm 3 m/s 756 mmHg 66%
    21:00 +13°C° 0 mm 4 m/s 756 mmHg 68%
    22:00 +12°C° 0 mm 4 m/s 756 mmHg 70%
    23:00 +12°C° 0 mm 4 m/s 756 mmHg 72%

    Mâine, 21 Octombrie, Duminică

    Timp Temperatura Precipitaţii Vânt Presiune Umiditate
    00:00 +11°C° 0 mm 4 m/s 756 mmHg 73%
    01:00 +11°C° 0 mm 4 m/s 756 mmHg 74%
    02:00 +9°C° 0 mm 5 m/s 756 mmHg 74%
    03:00 +9°C° 0 mm 5 m/s 756 mmHg 74%
    04:00 +8°C° 0 mm 5 m/s 756 mmHg 73%
    05:00 +8°C° 0.2 mm 5 m/s 756 mmHg 72%
    06:00 +8°C° 0.2 mm 6 m/s 756 mmHg 72%
    07:00 +8°C° 0.2 mm 6 m/s 756 mmHg 71%
    08:00 +8°C° 0.3 mm 5 m/s 756 mmHg 72%
    09:00 +8°C° 0.3 mm 5 m/s 756 mmHg 72%
    10:00 +8°C° 0.3 mm 5 m/s 756 mmHg 73%
    11:00 +9°C° 0.4 mm 5 m/s 756 mmHg 73%
    12:00 +10°C° 0.4 mm 4 m/s 756 mmHg 73%
    13:00 +11°C° 0.4 mm 4 m/s 756 mmHg 73%
    14:00 +11°C° 0.3 mm 4 m/s 756 mmHg 73%
    15:00 +11°C° 0.3 mm 3 m/s 756 mmHg 73%
    16:00 +12°C° 0.3 mm 3 m/s 756 mmHg 73%
    17:00 +12°C° 0.1 mm 3 m/s 756 mmHg 71%
    18:00 +12°C° 0.1 mm 4 m/s 756 mmHg 70%
    19:00 +12°C° 0.1 mm 4 m/s 757 mmHg 68%
    20:00 +11°C° 0 mm 4 m/s 757 mmHg 68%
    21:00 +11°C° 0 mm 4 m/s 757 mmHg 68%
    22:00 +10°C° 0 mm 4 m/s 757 mmHg 69%
    23:00 +10°C° 0 mm 3 m/s 757 mmHg 70%

    Poimâine, 22 Octombrie, Luni

    Timp Temperatura Precipitaţii Vânt Presiune Umiditate
    00:00 +10°C° 0 mm 3 m/s 757 mmHg 72%
    01:00 +9°C° 0 mm 2 m/s 757 mmHg 73%
    02:00 +9°C° 0 mm 2 m/s 757 mmHg 73%
    03:00 +9°C° 0 mm 2 m/s 757 mmHg 73%
    04:00 +9°C° 0 mm 2 m/s 757 mmHg 72%
    05:00 +9°C° 0 mm 2 m/s 757 mmHg 71%
    06:00 +9°C° 0 mm 2 m/s 757 mmHg 70%
    07:00 +9°C° 0 mm 2 m/s 757 mmHg 70%
    08:00 +12°C° 0 mm 2 m/s 757 mmHg 65%
    09:00 +13°C° 0 mm 2 m/s 758 mmHg 61%
    10:00 +14°C° 0 mm 2 m/s 758 mmHg 57%
    11:00 +15°C° 0 mm 2 m/s 757 mmHg 55%
    12:00 +16°C° 0 mm 2 m/s 757 mmHg 53%
    13:00 +17°C° 0 mm 2 m/s 756 mmHg 50%
    14:00 +17°C° 0 mm 2 m/s 756 mmHg 51%
    15:00 +16°C° 0 mm 2 m/s 756 mmHg 53%
    16:00 +16°C° 0 mm 2 m/s 756 mmHg 54%
    17:00 +15°C° 0 mm 2 m/s 756 mmHg 57%
    18:00 +14°C° 0 mm 2 m/s 756 mmHg 59%
    19:00 +13°C° 0 mm 2 m/s 756 mmHg 62%
    20:00 +12°C° 0 mm 2 m/s 756 mmHg 63%
    21:00 +12°C° 0 mm 2 m/s 756 mmHg 63%
    22:00 +10°C° 0 mm 2 m/s 756 mmHg 63%
    23:00 +10°C° 0 mm 2 m/s 756 mmHg 64%

    23 Octombrie, Marţi

    Timp Temperatura Precipitaţii Vânt Presiune Umiditate
    00:00 +9°C° 0 mm 3 m/s 756 mmHg 65%
    01:00 +9°C° 0 mm 3 m/s 756 mmHg 66%
    02:00 +9°C° 0 mm 3 m/s 756 mmHg 67%
    03:00 +8°C° 0 mm 3 m/s 756 mmHg 68%
    04:00 +8°C° 0 mm 3 m/s 756 mmHg 69%
    05:00 +7°C° 0 mm 4 m/s 756 mmHg 69%
    06:00 +7°C° 0 mm 4 m/s 756 mmHg 70%
    07:00 +6°C° 0 mm 4 m/s 756 mmHg 70%
    08:00 +8°C° 0 mm 4 m/s 757 mmHg 66%
    09:00 +10°C° 0 mm 4 m/s 757 mmHg 62%
    10:00 +12°C° 0 mm 4 m/s 757 mmHg 58%
    11:00 +12°C° 0 mm 4 m/s 756 mmHg 53%
    12:00 +13°C° 0 mm 5 m/s 756 mmHg 48%
    13:00 +14°C° 0 mm 5 m/s 756 mmHg 43%
    14:00 +13°C° 0 mm 5 m/s 755 mmHg 43%
    15:00 +13°C° 0 mm 5 m/s 755 mmHg 43%
    16:00 +11°C° 0 mm 6 m/s 754 mmHg 43%
    17:00 +10°C° 0 mm 5 m/s 754 mmHg 47%
    18:00 +10°C° 0 mm 4 m/s 754 mmHg 50%
    19:00 +9°C° 0 mm 3 m/s 754 mmHg 54%
    20:00 +8°C° 0 mm 4 m/s 754 mmHg 55%
    21:00 +8°C° 0 mm 4 m/s 753 mmHg 56%
    22:00 +8°C° 0 mm 5 m/s 753 mmHg 57%
    23:00 +8°C° 0.1 mm 5 m/s 752 mmHg 59%

    24 Octombrie, Miercuri

    Timp Temperatura Precipitaţii Vânt Presiune Umiditate
    00:00 +8°C° 0.1 mm 6 m/s 751 mmHg 61%
    01:00 +8°C° 0.1 mm 7 m/s 750 mmHg 64%
    02:00 +9°C° 0.1 mm 7 m/s 750 mmHg 64%
    03:00 +9°C° 0.1 mm 7 m/s 749 mmHg 65%
    04:00 +9°C° 0.1 mm 8 m/s 748 mmHg 66%
    05:00 +9°C° 0.1 mm 8 m/s 747 mmHg 66%
    06:00 +9°C° 0.1 mm 8 m/s 747 mmHg 66%
    07:00 +10°C° 0.1 mm 8 m/s 746 mmHg 66%
    08:00 +11°C° 0.3 mm 9 m/s 746 mmHg 64%
    09:00 +12°C° 0.3 mm 9 m/s 746 mmHg 62%
    10:00 +13°C° 0.3 mm 9 m/s 746 mmHg 60%
    11:00 +13°C° 0 mm 10 m/s 746 mmHg 53%
    12:00 +13°C° 0 mm 10 m/s 746 mmHg 45%
    13:00 +13°C° 0 mm 10 m/s 746 mmHg 38%
    14:00 +12°C° 0 mm 9 m/s 747 mmHg 39%
    15:00 +11°C° 0 mm 9 m/s 747 mmHg 40%
    16:00 +10°C° 0 mm 8 m/s 748 mmHg 41%
    17:00 +9°C° 0 mm 6 m/s 748 mmHg 44%
    18:00 +8°C° 0 mm 5 m/s 749 mmHg 46%
    19:00 +7°C° 0 mm 4 m/s 749 mmHg 49%
    20:00 +7°C° 0 mm 4 m/s 750 mmHg 51%
    21:00 +7°C° 0 mm 3 m/s 750 mmHg 53%
    22:00 +7°C° 0 mm 3 m/s 750 mmHg 55%
    23:00 +7°C° 0 mm 3 m/s 751 mmHg 57%

    25 Octombrie, Joi

    Timp Temperatura Precipitaţii Vânt Presiune Umiditate
    00:00 +7°C° 0 mm 3 m/s 751 mmHg 58%
    01:00 +7°C° 0 mm 3 m/s 751 mmHg 60%
    02:00 +7°C° 0 mm 3 m/s 751 mmHg 60%
    03:00 +7°C° 0 mm 3 m/s 751 mmHg 61%
    04:00 +7°C° 0 mm 3 m/s 751 mmHg 62%
    05:00 +7°C° 0.6 mm 3 m/s 751 mmHg 67%
    06:00 +7°C° 0.6 mm 3 m/s 751 mmHg 73%
    07:00 +7°C° 0.6 mm 3 m/s 751 mmHg 78%
    08:00 +7°C° 0.4 mm 3 m/s 751 mmHg 79%
    09:00 +8°C° 0.4 mm 3 m/s 751 mmHg 79%
    10:00 +8°C° 0.4 mm 3 m/s 752 mmHg 80%
    11:00 +8°C° 0.1 mm 4 m/s 752 mmHg 77%
    12:00 +11°C° 0.1 mm 4 m/s 751 mmHg 73%
    13:00 +12°C° 0.1 mm 5 m/s 751 mmHg 70%
    14:00 +13°C° 0 mm 5 m/s 751 mmHg 69%
    15:00 +13°C° 0 mm 4 m/s 751 mmHg 68%
    16:00 +14°C° 0 mm 3 m/s 750 mmHg 67%
    17:00 +13°C° 0 mm 4 m/s 751 mmHg 68%
    18:00 +12°C° 0 mm 4 m/s 751 mmHg 69%
    19:00 +12°C° 0 mm 4 m/s 751 mmHg 71%
    20:00 +11°C° 0 mm 4 m/s 751 mmHg 72%
    21:00 +11°C° 0 mm 4 m/s 751 mmHg 73%
    22:00 +11°C° 0 mm 4 m/s 751 mmHg 74%
    23:00 +10°C° 0 mm 4 m/s 751 mmHg 75%
    Arată mai mult